Time,TemperatureF,DewpointF,PressureIn,WindDirection,WindDirectionDegrees,WindSpeedMPH,WindSpeedGustMPH,Humidity,HourlyPrecipIn,Conditions,Clouds,dailyrainin,SoftwareType,DateUTC
2013-07-25 00:02:00,62.5,57.6,30.00,North,4,0.0,5.0,84,0.00,,,0.00,Wunderground v.1.15,2013-07-25 04:02:00,
2013-07-25 00:04:00,62.5,57.6,30.00,North,4,0.0,5.0,84,0.00,,,0.00,Wunderground v.1.15,2013-07-25 04:04:00,
2013-07-25 00:06:00,62.5,57.9,30.00,North,4,0.0,5.0,85,0.00,,,0.00,Wunderground v.1.15,2013-07-25 04:06:00,
2013-07-25 00:10:00,62.4,57.8,30.00,North,4,1.0,5.0,85,0.00,,,0.00,Wunderground v.1.15,2013-07-25 04:10:00,
2013-07-25 00:12:00,62.4,57.8,30.00,North,4,1.0,5.0,85,0.00,,,0.00,Wunderground v.1.15,2013-07-25 04:12:00,
2013-07-25 00:14:00,62.3,57.7,30.00,North,4,1.0,5.0,85,0.00,,,0.00,Wunderground v.1.15,2013-07-25 04:14:00,
2013-07-25 00:16:00,62.2,57.6,30.00,North,4,1.0,5.0,85,0.00,,,0.00,Wunderground v.1.15,2013-07-25 04:16:00,
2013-07-25 00:18:00,62.2,57.6,30.00,North,4,1.0,5.0,85,0.00,,,0.00,Wunderground v.1.15,2013-07-25 04:18:00,
2013-07-25 00:20:00,62.2,57.6,30.00,North,4,1.0,1.0,85,0.00,,,0.00,Wunderground v.1.15,2013-07-25 04:20:00,
2013-07-25 00:22:00,62.1,57.5,30.00,North,4,0.0,5.0,85,0.00,,,0.00,Wunderground v.1.15,2013-07-25 04:22:00,
2013-07-25 00:26:00,62.1,57.5,30.00,North,4,0.0,5.0,85,0.00,,,0.00,Wunderground v.1.15,2013-07-25 04:26:00,
2013-07-25 00:28:00,62.0,57.4,30.00,North,4,0.0,5.0,85,0.00,,,0.00,Wunderground v.1.15,2013-07-25 04:28:00,
2013-07-25 00:34:00,61.7,57.5,30.00,NNW,328,1.0,5.0,86,0.00,,,0.00,Wunderground v.1.15,2013-07-25 04:34:00,
2013-07-25 00:36:00,61.6,57.4,30.00,NNW,328,2.0,5.0,86,0.00,,,0.00,Wunderground v.1.15,2013-07-25 04:36:00,
2013-07-25 00:40:00,61.4,57.5,30.00,NNW,328,2.0,5.0,87,0.00,,,0.00,Wunderground v.1.15,2013-07-25 04:40:00,
2013-07-25 00:42:00,61.3,57.4,30.00,NNW,328,2.0,5.0,87,0.00,,,0.00,Wunderground v.1.15,2013-07-25 04:42:00,
2013-07-25 00:44:00,61.1,57.2,30.00,NNW,328,1.0,5.0,87,0.00,,,0.00,Wunderground v.1.15,2013-07-25 04:44:00,
2013-07-25 00:46:00,61.0,57.4,30.00,NNW,328,1.0,5.0,88,0.00,,,0.00,Wunderground v.1.15,2013-07-25 04:46:00,
2013-07-25 00:52:00,60.7,57.1,30.00,NNW,328,1.0,5.0,88,0.00,,,0.00,Wunderground v.1.15,2013-07-25 04:52:00,
2013-07-25 00:54:00,60.7,57.1,30.00,NNW,328,0.0,5.0,88,0.00,,,0.00,Wunderground v.1.15,2013-07-25 04:54:00,
2013-07-25 00:56:00,60.6,57.0,30.00,NNW,328,0.0,5.0,88,0.00,,,0.00,Wunderground v.1.15,2013-07-25 04:56:00,
2013-07-25 00:58:00,60.6,57.0,30.00,NNW,328,0.0,5.0,88,0.00,,,0.00,Wunderground v.1.15,2013-07-25 04:58:00,
2013-07-25 01:00:00,60.5,56.9,30.00,NNW,328,0.0,5.0,88,0.00,,,0.00,Wunderground v.1.15,2013-07-25 05:00:00,
2013-07-25 01:04:00,60.5,56.9,30.01,NNW,328,0.0,5.0,88,0.00,,,0.00,Wunderground v.1.15,2013-07-25 05:04:00,
2013-07-25 01:06:00,60.4,57.1,30.01,NNW,328,0.0,5.0,89,0.00,,,0.00,Wunderground v.1.15,2013-07-25 05:06:00,
2013-07-25 01:08:00,60.4,57.1,30.01,NNW,328,0.0,5.0,89,0.00,,,0.00,Wunderground v.1.15,2013-07-25 05:08:00,
2013-07-25 01:12:00,60.3,57.0,30.01,NNW,328,0.0,5.0,89,0.00,,,0.00,Wunderground v.1.15,2013-07-25 05:12:00,
2013-07-25 01:14:00,60.2,56.9,30.01,NNW,328,0.0,5.0,89,0.00,,,0.00,Wunderground v.1.15,2013-07-25 05:14:00,
2013-07-25 01:16:00,60.2,56.9,30.01,NNW,328,0.0,5.0,89,0.00,,,0.00,Wunderground v.1.15,2013-07-25 05:16:00,
2013-07-25 01:20:00,60.2,56.9,30.01,NNW,328,0.0,5.0,89,0.00,,,0.00,Wunderground v.1.15,2013-07-25 05:20:00,
2013-07-25 01:22:00,60.2,56.9,30.01,NNW,328,0.0,5.0,89,0.00,,,0.00,Wunderground v.1.15,2013-07-25 05:22:00,
2013-07-25 01:24:00,60.2,56.9,30.01,NNW,328,0.0,5.0,89,0.00,,,0.00,Wunderground v.1.15,2013-07-25 05:24:00,
2013-07-25 01:26:00,60.2,56.9,30.01,NNW,328,0.0,5.0,89,0.00,,,0.00,Wunderground v.1.15,2013-07-25 05:26:00,
2013-07-25 01:28:00,60.1,56.8,30.01,NNW,328,0.0,5.0,89,0.00,,,0.00,Wunderground v.1.15,2013-07-25 05:28:00,
2013-07-25 01:30:00,60.1,56.8,30.01,NNW,328,0.0,5.0,89,0.00,,,0.00,Wunderground v.1.15,2013-07-25 05:30:00,
2013-07-25 01:32:00,60.1,56.8,30.01,NNW,328,0.0,5.0,89,0.00,,,0.00,Wunderground v.1.15,2013-07-25 05:32:00,
2013-07-25 01:34:00,60.0,56.7,30.01,NNW,328,0.0,5.0,89,0.00,,,0.00,Wunderground v.1.15,2013-07-25 05:34:00,
2013-07-25 01:36:00,60.0,56.7,30.01,NNW,328,0.0,5.0,89,0.00,,,0.00,Wunderground v.1.15,2013-07-25 05:36:00,
2013-07-25 01:42:00,59.7,56.8,30.00,NNW,328,0.0,5.0,90,0.00,,,0.00,Wunderground v.1.15,2013-07-25 05:42:00,
2013-07-25 01:48:00,59.5,56.6,30.01,NNW,328,0.0,5.0,90,0.00,,,0.00,Wunderground v.1.15,2013-07-25 05:48:00,
2013-07-25 01:50:00,59.4,56.5,30.01,NNW,328,0.0,5.0,90,0.00,,,0.00,Wunderground v.1.15,2013-07-25 05:50:00,
2013-07-25 01:52:00,59.4,56.5,30.01,NNW,328,0.0,5.0,90,0.00,,,0.00,Wunderground v.1.15,2013-07-25 05:52:00,
2013-07-25 01:54:00,59.4,56.8,30.01,NNW,328,0.0,5.0,91,0.00,,,0.00,Wunderground v.1.15,2013-07-25 05:54:00,
2013-07-25 01:56:00,59.3,56.7,30.01,NNW,328,0.0,5.0,91,0.00,,,0.00,Wunderground v.1.15,2013-07-25 05:56:00,
2013-07-25 01:58:00,59.3,56.4,30.01,NNW,328,0.0,5.0,90,0.00,,,0.00,Wunderground v.1.15,2013-07-25 05:58:00,
2013-07-25 02:00:00,59.2,56.6,30.01,NNW,328,0.0,5.0,91,0.00,,,0.00,Wunderground v.1.15,2013-07-25 06:00:00,
2013-07-25 02:04:00,59.1,56.5,30.00,NNW,328,0.0,5.0,91,0.00,,,0.00,Wunderground v.1.15,2013-07-25 06:04:00,
2013-07-25 02:06:00,59.0,56.4,30.00,NNW,328,0.0,5.0,91,0.00,,,0.00,Wunderground v.1.15,2013-07-25 06:06:00,
2013-07-25 02:10:00,58.8,56.2,30.00,NNW,328,0.0,5.0,91,0.00,,,0.00,Wunderground v.1.15,2013-07-25 06:10:00,
2013-07-25 02:12:00,58.7,56.1,30.00,NNW,328,0.0,5.0,91,0.00,,,0.00,Wunderground v.1.15,2013-07-25 06:12:00,
2013-07-25 02:14:00,58.7,56.4,30.00,NNW,328,0.0,5.0,92,0.00,,,0.00,Wunderground v.1.15,2013-07-25 06:14:00,
2013-07-25 02:16:00,58.6,56.0,30.00,NNW,328,0.0,5.0,91,0.00,,,0.00,Wunderground v.1.15,2013-07-25 06:16:00,
2013-07-25 02:18:00,58.6,56.0,30.00,NNW,328,0.0,5.0,91,0.00,,,0.00,Wunderground v.1.15,2013-07-25 06:18:00,
2013-07-25 02:22:00,58.4,56.1,30.00,NNW,328,0.0,5.0,92,0.00,,,0.00,Wunderground v.1.15,2013-07-25 06:22:00,
2013-07-25 02:24:00,58.4,56.1,30.00,NNW,328,0.0,5.0,92,0.00,,,0.00,Wunderground v.1.15,2013-07-25 06:24:00,
2013-07-25 02:26:00,58.3,56.0,30.00,NNW,328,0.0,5.0,92,0.00,,,0.00,Wunderground v.1.15,2013-07-25 06:26:00,
2013-07-25 02:28:00,58.4,56.1,30.00,NNW,328,0.0,5.0,92,0.00,,,0.00,Wunderground v.1.15,2013-07-25 06:28:00,
2013-07-25 02:30:00,58.4,56.1,30.00,NNW,328,0.0,5.0,92,0.00,,,0.00,Wunderground v.1.15,2013-07-25 06:30:00,
2013-07-25 02:32:00,58.4,56.1,30.00,NNW,328,0.0,5.0,92,0.00,,,0.00,Wunderground v.1.15,2013-07-25 06:32:00,
2013-07-25 02:34:00,58.4,56.4,30.00,NNW,328,0.0,5.0,93,0.00,,,0.00,Wunderground v.1.15,2013-07-25 06:34:00,
2013-07-25 02:36:00,58.3,56.3,30.00,NNW,328,1.0,5.0,93,0.00,,,0.00,Wunderground v.1.15,2013-07-25 06:36:00,
2013-07-25 02:40:00,58.4,56.4,30.00,NNW,328,1.0,1.0,93,0.00,,,0.00,Wunderground v.1.15,2013-07-25 06:40:00,
2013-07-25 02:42:00,58.3,56.3,30.00,NNW,328,1.0,5.0,93,0.00,,,0.00,Wunderground v.1.15,2013-07-25 06:42:00,
2013-07-25 02:46:00,58.3,56.3,30.00,NNW,328,0.0,5.0,93,0.00,,,0.00,Wunderground v.1.15,2013-07-25 06:46:00,
2013-07-25 02:50:00,58.4,56.4,30.00,NNW,328,0.0,5.0,93,0.00,,,0.00,Wunderground v.1.15,2013-07-25 06:50:00,
2013-07-25 02:52:00,58.3,56.3,30.00,NNW,328,0.0,5.0,93,0.00,,,0.00,Wunderground v.1.15,2013-07-25 06:52:00,
2013-07-25 02:54:00,58.3,56.0,30.00,NNW,328,0.0,5.0,92,0.00,,,0.00,Wunderground v.1.15,2013-07-25 06:54:00,
2013-07-25 03:00:00,58.4,56.4,30.00,NNW,328,0.0,5.0,93,0.00,,,0.00,Wunderground v.1.15,2013-07-25 07:00:00,
2013-07-25 03:02:00,58.3,56.0,30.00,NNW,328,0.0,5.0,92,0.00,,,0.00,Wunderground v.1.15,2013-07-25 07:02:00,
2013-07-25 03:06:00,58.1,55.8,30.00,NNW,328,0.0,5.0,92,0.00,,,0.00,Wunderground v.1.15,2013-07-25 07:06:00,
2013-07-25 03:10:00,58.0,55.7,30.00,NNW,328,0.0,5.0,92,0.00,,,0.00,Wunderground v.1.15,2013-07-25 07:10:00,
2013-07-25 03:12:00,58.0,55.7,30.00,NNW,328,0.0,5.0,92,0.00,,,0.00,Wunderground v.1.15,2013-07-25 07:12:00,
2013-07-25 03:16:00,58.2,56.2,30.00,NNW,328,0.0,5.0,93,0.00,,,0.00,Wunderground v.1.15,2013-07-25 07:16:00,
2013-07-25 03:18:00,58.3,56.3,30.00,NNW,328,0.0,5.0,93,0.00,,,0.00,Wunderground v.1.15,2013-07-25 07:18:00,
2013-07-25 03:22:00,58.3,56.3,30.00,NNW,328,0.0,5.0,93,0.00,,,0.00,Wunderground v.1.15,2013-07-25 07:22:00,
2013-07-25 03:24:00,58.2,55.9,30.00,NNW,328,0.0,5.0,92,0.00,,,0.00,Wunderground v.1.15,2013-07-25 07:24:00,
2013-07-25 03:26:00,58.1,55.8,30.00,NNW,328,0.0,5.0,92,0.00,,,0.00,Wunderground v.1.15,2013-07-25 07:26:00,
2013-07-25 03:28:00,58.0,55.7,30.00,NNW,328,0.0,5.0,92,0.00,,,0.00,Wunderground v.1.15,2013-07-25 07:28:00,
2013-07-25 03:32:00,57.8,55.5,30.00,NNW,328,1.0,5.0,92,0.00,,,0.00,Wunderground v.1.15,2013-07-25 07:32:00,
2013-07-25 03:34:00,57.8,55.8,30.00,NNW,328,1.0,5.0,93,0.00,,,0.00,Wunderground v.1.15,2013-07-25 07:34:00,
2013-07-25 03:38:00,57.6,55.3,30.00,NNW,327,2.0,5.0,92,0.00,,,0.00,Wunderground v.1.15,2013-07-25 07:38:00,
2013-07-25 03:40:00,57.6,55.6,30.00,NNW,327,2.0,2.0,93,0.00,,,0.00,Wunderground v.1.15,2013-07-25 07:40:00,
2013-07-25 03:44:00,57.4,55.1,30.00,NNW,327,1.0,5.0,92,0.00,,,0.00,Wunderground v.1.15,2013-07-25 07:44:00,
2013-07-25 03:48:00,57.4,55.4,30.00,NW,322,1.0,5.0,93,0.00,,,0.00,Wunderground v.1.15,2013-07-25 07:48:00,
2013-07-25 03:50:00,57.4,55.4,30.00,NW,322,1.0,5.0,93,0.00,,,0.00,Wunderground v.1.15,2013-07-25 07:50:00,
2013-07-25 03:52:00,57.3,55.3,30.00,NW,322,1.0,5.0,93,0.00,,,0.00,Wunderground v.1.15,2013-07-25 07:52:00,
2013-07-25 03:56:00,57.2,55.2,30.01,NW,322,1.0,5.0,93,0.00,,,0.00,Wunderground v.1.15,2013-07-25 07:56:00,
2013-07-25 04:00:00,57.2,55.2,30.01,NW,310,2.0,5.0,93,0.00,,,0.00,Wunderground v.1.15,2013-07-25 08:00:00,
2013-07-25 04:02:00,57.2,55.2,30.01,NW,308,2.0,5.0,93,0.00,,,0.00,Wunderground v.1.15,2013-07-25 08:02:00,
2013-07-25 04:04:00,57.2,55.2,30.01,WNW,296,2.0,5.0,93,0.00,,,0.00,Wunderground v.1.15,2013-07-25 08:04:00,
2013-07-25 04:06:00,57.0,55.0,30.01,WNW,284,2.0,5.0,93,0.00,,,0.00,Wunderground v.1.15,2013-07-25 08:06:00,
2013-07-25 04:12:00,57.1,55.1,30.01,West,272,2.0,5.0,93,0.00,,,0.00,Wunderground v.1.15,2013-07-25 08:12:00,
2013-07-25 04:14:00,57.1,55.1,30.01,West,272,1.0,5.0,93,0.00,,,0.00,Wunderground v.1.15,2013-07-25 08:14:00,
2013-07-25 04:16:00,57.2,55.2,30.01,West,272,1.0,5.0,93,0.00,,,0.00,Wunderground v.1.15,2013-07-25 08:16:00,
2013-07-25 04:18:00,57.2,55.2,30.01,West,274,1.0,5.0,93,0.00,,,0.00,Wunderground v.1.15,2013-07-25 08:18:00,
2013-07-25 04:20:00,57.2,55.2,30.01,West,281,1.0,5.0,93,0.00,,,0.00,Wunderground v.1.15,2013-07-25 08:20:00,
2013-07-25 04:22:00,57.2,55.5,30.01,West,281,2.0,5.0,94,0.00,,,0.00,Wunderground v.1.15,2013-07-25 08:22:00,
2013-07-25 04:24:00,57.2,55.2,30.01,West,281,2.0,5.0,93,0.00,,,0.00,Wunderground v.1.15,2013-07-25 08:24:00,
2013-07-25 04:28:00,57.0,55.0,30.01,West,281,1.0,5.0,93,0.00,,,0.00,Wunderground v.1.15,2013-07-25 08:28:00,
2013-07-25 04:30:00,56.8,54.8,30.01,West,281,1.0,1.0,93,0.00,,,0.00,Wunderground v.1.15,2013-07-25 08:30:00,
2013-07-25 04:32:00,56.8,54.8,30.01,West,281,1.0,5.0,93,0.00,,,0.00,Wunderground v.1.15,2013-07-25 08:32:00,
2013-07-25 04:34:00,56.8,54.8,30.01,West,281,0.0,5.0,93,0.00,,,0.00,Wunderground v.1.15,2013-07-25 08:34:00,
2013-07-25 04:38:00,56.6,54.6,30.01,West,281,0.0,5.0,93,0.00,,,0.00,Wunderground v.1.15,2013-07-25 08:38:00,
2013-07-25 04:40:00,56.6,54.6,30.01,West,281,0.0,5.0,93,0.00,,,0.00,Wunderground v.1.15,2013-07-25 08:40:00,
2013-07-25 04:42:00,56.4,54.4,30.01,West,281,0.0,5.0,93,0.00,,,0.00,Wunderground v.1.15,2013-07-25 08:42:00,
2013-07-25 04:44:00,56.5,54.5,30.01,West,281,0.0,5.0,93,0.00,,,0.00,Wunderground v.1.15,2013-07-25 08:44:00,
2013-07-25 04:48:00,56.4,54.4,30.01,West,281,0.0,5.0,93,0.00,,,0.00,Wunderground v.1.15,2013-07-25 08:48:00,
2013-07-25 04:52:00,56.4,54.7,30.02,West,281,1.0,5.0,94,0.00,,,0.00,Wunderground v.1.15,2013-07-25 08:52:00,
2013-07-25 04:54:00,56.4,54.7,30.02,West,281,1.0,5.0,94,0.00,,,0.00,Wunderground v.1.15,2013-07-25 08:54:00,
2013-07-25 04:56:00,56.4,54.7,30.02,West,281,2.0,5.0,94,0.00,,,0.00,Wunderground v.1.15,2013-07-25 08:56:00,
2013-07-25 04:58:00,56.4,54.7,30.02,WNW,283,3.0,5.0,94,0.00,,,0.00,Wunderground v.1.15,2013-07-25 08:58:00,
2013-07-25 05:02:00,56.4,54.7,30.02,WNW,285,3.0,5.0,94,0.00,,,0.00,Wunderground v.1.15,2013-07-25 09:02:00,
2013-07-25 05:04:00,56.3,54.6,30.02,WNW,286,3.0,5.0,94,0.00,,,0.00,Wunderground v.1.15,2013-07-25 09:04:00,
2013-07-25 05:06:00,56.3,54.6,30.02,WNW,286,3.0,5.0,94,0.00,,,0.00,Wunderground v.1.15,2013-07-25 09:06:00,
2013-07-25 05:10:00,56.3,54.6,30.02,WNW,286,2.0,2.0,94,0.00,,,0.00,Wunderground v.1.15,2013-07-25 09:10:00,
2013-07-25 05:12:00,56.2,54.5,30.02,WNW,286,1.0,5.0,94,0.00,,,0.00,Wunderground v.1.15,2013-07-25 09:12:00,
2013-07-25 05:18:00,56.2,54.5,30.02,WNW,286,0.0,5.0,94,0.00,,,0.00,Wunderground v.1.15,2013-07-25 09:18:00,
2013-07-25 05:24:00,56.3,54.6,30.02,WNW,286,1.0,5.0,94,0.00,,,0.00,Wunderground v.1.15,2013-07-25 09:24:00,
2013-07-25 05:26:00,56.4,54.7,30.02,WNW,286,1.0,5.0,94,0.00,,,0.00,Wunderground v.1.15,2013-07-25 09:26:00,
2013-07-25 05:32:00,56.4,54.7,30.02,WNW,286,1.0,5.0,94,0.00,,,0.00,Wunderground v.1.15,2013-07-25 09:32:00,
2013-07-25 05:34:00,56.3,54.6,30.03,WNW,286,1.0,5.0,94,0.00,,,0.00,Wunderground v.1.15,2013-07-25 09:34:00,
2013-07-25 05:36:00,56.3,54.6,30.02,WNW,286,1.0,5.0,94,0.00,,,0.00,Wunderground v.1.15,2013-07-25 09:36:00,
2013-07-25 05:38:00,56.2,54.5,30.03,WNW,286,1.0,5.0,94,0.00,,,0.00,Wunderground v.1.15,2013-07-25 09:38:00,
2013-07-25 05:44:00,56.2,54.5,30.03,WNW,286,2.0,5.0,94,0.00,,,0.00,Wunderground v.1.15,2013-07-25 09:44:00,
2013-07-25 05:46:00,56.1,54.4,30.03,WNW,286,2.0,5.0,94,0.00,,,0.00,Wunderground v.1.15,2013-07-25 09:46:00,
2013-07-25 05:48:00,55.9,54.2,30.03,WNW,286,2.0,5.0,94,0.00,,,0.00,Wunderground v.1.15,2013-07-25 09:48:00,
2013-07-25 05:50:00,55.7,54.0,30.03,WNW,286,3.0,3.0,94,0.00,,,0.00,Wunderground v.1.15,2013-07-25 09:50:00,
2013-07-25 05:52:00,55.6,53.9,30.03,WNW,287,3.0,5.0,94,0.00,,,0.00,Wunderground v.1.15,2013-07-25 09:52:00,
2013-07-25 05:54:00,55.6,53.9,30.03,WNW,286,2.0,5.0,94,0.00,,,0.00,Wunderground v.1.15,2013-07-25 09:54:00,
2013-07-25 05:58:00,55.7,54.0,30.03,WNW,286,2.0,5.0,94,0.00,,,0.00,Wunderground v.1.15,2013-07-25 09:58:00,
2013-07-25 06:04:00,55.7,54.0,30.03,WNW,286,2.0,5.0,94,0.00,,,0.00,Wunderground v.1.15,2013-07-25 10:04:00,
2013-07-25 06:06:00,55.7,54.0,30.03,WNW,286,2.0,5.0,94,0.00,,,0.00,Wunderground v.1.15,2013-07-25 10:06:00,
2013-07-25 06:12:00,55.7,54.0,30.04,WNW,287,2.0,2.0,94,0.00,,,0.00,Wunderground v.1.15,2013-07-25 10:12:00,
2013-07-25 06:14:00,55.6,54.2,30.04,WNW,282,2.0,3.0,95,0.00,,,0.00,Wunderground v.1.15,2013-07-25 10:14:00,
2013-07-25 06:18:00,55.7,54.3,30.04,WNW,285,3.0,3.0,95,0.00,,,0.00,Wunderground v.1.15,2013-07-25 10:18:00,
2013-07-25 06:20:00,55.7,54.3,30.04,WNW,285,3.0,3.0,95,0.00,,,0.00,Wunderground v.1.15,2013-07-25 10:20:00,
2013-07-25 06:22:00,55.6,54.2,30.04,WNW,285,3.0,3.0,95,0.00,,,0.00,Wunderground v.1.15,2013-07-25 10:22:00,
2013-07-25 06:28:00,55.6,54.2,30.04,WNW,285,2.0,3.0,95,0.00,,,0.00,Wunderground v.1.15,2013-07-25 10:28:00,
2013-07-25 06:32:00,55.5,53.8,30.04,WNW,285,1.0,3.0,94,0.00,,,0.00,Wunderground v.1.15,2013-07-25 10:32:00,
2013-07-25 06:34:00,55.5,53.8,30.04,WNW,285,1.0,3.0,94,0.00,,,0.00,Wunderground v.1.15,2013-07-25 10:34:00,
2013-07-25 06:36:00,55.4,53.7,30.04,WNW,285,1.0,3.0,94,0.00,,,0.00,Wunderground v.1.15,2013-07-25 10:36:00,
2013-07-25 06:38:00,55.4,53.7,30.04,WNW,285,0.0,3.0,94,0.00,,,0.00,Wunderground v.1.15,2013-07-25 10:38:00,
2013-07-25 06:42:00,55.5,54.1,30.04,WNW,285,0.0,3.0,95,0.00,,,0.00,Wunderground v.1.15,2013-07-25 10:42:00,
2013-07-25 06:44:00,55.5,54.1,30.04,WNW,285,1.0,3.0,95,0.00,,,0.00,Wunderground v.1.15,2013-07-25 10:44:00,
2013-07-25 06:48:00,55.5,54.1,30.04,WNW,285,1.0,3.0,95,0.00,,,0.00,Wunderground v.1.15,2013-07-25 10:48:00,
2013-07-25 06:52:00,55.5,54.1,30.04,WNW,285,1.0,3.0,95,0.00,,,0.00,Wunderground v.1.15,2013-07-25 10:52:00,
2013-07-25 06:56:00,55.4,53.7,30.04,WNW,285,1.0,3.0,94,0.00,,,0.00,Wunderground v.1.15,2013-07-25 10:56:00,
2013-07-25 07:00:00,55.4,54.0,30.04,WNW,285,1.0,3.0,95,0.00,,,0.00,Wunderground v.1.15,2013-07-25 11:00:00,
2013-07-25 07:02:00,55.4,54.0,30.04,WNW,285,1.0,3.0,95,0.00,,,0.00,Wunderground v.1.15,2013-07-25 11:02:00,
2013-07-25 07:04:00,55.4,54.0,30.04,WNW,285,1.0,3.0,95,0.00,,,0.00,Wunderground v.1.15,2013-07-25 11:04:00,
2013-07-25 07:06:00,55.5,54.1,30.05,WNW,285,1.0,3.0,95,0.00,,,0.00,Wunderground v.1.15,2013-07-25 11:06:00,
2013-07-25 07:10:00,55.5,54.1,30.05,WNW,285,1.0,3.0,95,0.00,,,0.00,Wunderground v.1.15,2013-07-25 11:10:00,
2013-07-25 07:12:00,55.6,54.2,30.05,WNW,285,1.0,3.0,95,0.00,,,0.00,Wunderground v.1.15,2013-07-25 11:12:00,
2013-07-25 07:18:00,55.7,54.3,30.05,WNW,285,1.0,3.0,95,0.00,,,0.00,Wunderground v.1.15,2013-07-25 11:18:00,
2013-07-25 07:20:00,55.7,54.3,30.05,WNW,285,1.0,3.0,95,0.00,,,0.00,Wunderground v.1.15,2013-07-25 11:20:00,
2013-07-25 07:24:00,55.8,54.4,30.05,WNW,285,1.0,3.0,95,0.00,,,0.00,Wunderground v.1.15,2013-07-25 11:24:00,
2013-07-25 07:26:00,55.8,54.4,30.05,WNW,285,1.0,3.0,95,0.00,,,0.00,Wunderground v.1.15,2013-07-25 11:26:00,
2013-07-25 07:28:00,55.8,54.4,30.05,WNW,285,1.0,3.0,95,0.00,,,0.00,Wunderground v.1.15,2013-07-25 11:28:00,
2013-07-25 07:30:00,55.9,54.5,30.05,WNW,285,1.0,3.0,95,0.00,,,0.00,Wunderground v.1.15,2013-07-25 11:30:00,
2013-07-25 07:32:00,55.9,54.5,30.05,WNW,285,1.0,3.0,95,0.00,,,0.00,Wunderground v.1.15,2013-07-25 11:32:00,
2013-07-25 07:34:00,55.9,54.5,30.05,WNW,285,1.0,3.0,95,0.00,,,0.00,Wunderground v.1.15,2013-07-25 11:34:00,
2013-07-25 07:36:00,55.9,54.5,30.05,WNW,285,1.0,3.0,95,0.00,,,0.00,Wunderground v.1.15,2013-07-25 11:36:00,
2013-07-25 07:38:00,55.9,54.5,30.04,WNW,285,0.0,3.0,95,0.00,,,0.00,Wunderground v.1.15,2013-07-25 11:38:00,
2013-07-25 07:42:00,56.1,54.7,30.05,WNW,285,0.0,3.0,95,0.00,,,0.00,Wunderground v.1.15,2013-07-25 11:42:00,
2013-07-25 07:44:00,56.2,54.8,30.05,WNW,285,0.0,3.0,95,0.00,,,0.00,Wunderground v.1.15,2013-07-25 11:44:00,
2013-07-25 07:46:00,56.4,55.0,30.05,WNW,285,0.0,3.0,95,0.00,,,0.00,Wunderground v.1.15,2013-07-25 11:46:00,
2013-07-25 07:50:00,56.6,55.2,30.05,WNW,285,0.0,3.0,95,0.00,,,0.00,Wunderground v.1.15,2013-07-25 11:50:00,
2013-07-25 07:52:00,56.6,55.2,30.05,WNW,285,0.0,3.0,95,0.00,,,0.00,Wunderground v.1.15,2013-07-25 11:52:00,
2013-07-25 07:54:00,56.7,55.3,30.05,WNW,285,1.0,3.0,95,0.00,,,0.00,Wunderground v.1.15,2013-07-25 11:54:00,
2013-07-25 08:00:00,56.6,54.9,30.05,WNW,285,1.0,1.0,94,0.00,,,0.00,Wunderground v.1.15,2013-07-25 12:00:00,
2013-07-25 08:02:00,56.7,55.0,30.05,WNW,285,1.0,3.0,94,0.00,,,0.00,Wunderground v.1.15,2013-07-25 12:02:00,
2013-07-25 08:06:00,56.9,55.5,30.05,WNW,285,0.0,3.0,95,0.00,,,0.00,Wunderground v.1.15,2013-07-25 12:06:00,
2013-07-25 08:08:00,57.1,55.7,30.05,WNW,285,0.0,3.0,95,0.00,,,0.00,Wunderground v.1.15,2013-07-25 12:08:00,
2013-07-25 08:12:00,57.2,55.5,30.05,WNW,285,1.0,3.0,94,0.00,,,0.00,Wunderground v.1.15,2013-07-25 12:12:00,
2013-07-25 08:14:00,57.3,55.6,30.05,WNW,285,1.0,3.0,94,0.00,,,0.00,Wunderground v.1.15,2013-07-25 12:14:00,
2013-07-25 08:18:00,57.5,55.8,30.05,WNW,285,2.0,3.0,94,0.00,,,0.00,Wunderground v.1.15,2013-07-25 12:18:00,
2013-07-25 08:20:00,57.6,55.9,30.05,WNW,285,2.0,2.0,94,0.00,,,0.00,Wunderground v.1.15,2013-07-25 12:20:00,
2013-07-25 08:22:00,57.8,56.1,30.06,WNW,290,2.0,3.0,94,0.00,,,0.00,Wunderground v.1.15,2013-07-25 12:22:00,
2013-07-25 08:24:00,57.9,56.2,30.06,WNW,290,2.0,3.0,94,0.00,,,0.00,Wunderground v.1.15,2013-07-25 12:24:00,
2013-07-25 08:30:00,58.2,56.2,30.07,WNW,295,2.0,3.0,93,0.00,,,0.00,Wunderground v.1.15,2013-07-25 12:30:00,
2013-07-25 08:34:00,58.4,56.4,30.07,WNW,296,2.0,3.0,93,0.00,,,0.00,Wunderground v.1.15,2013-07-25 12:34:00,
2013-07-25 08:38:00,58.8,56.5,30.06,NW,322,2.0,4.0,92,0.00,,,0.00,Wunderground v.1.15,2013-07-25 12:38:00,
2013-07-25 08:40:00,58.9,56.6,30.07,North,359,2.0,3.0,92,0.00,,,0.00,Wunderground v.1.15,2013-07-25 12:40:00,
2013-07-25 08:42:00,59.1,56.5,30.06,North,4,3.0,4.0,91,0.00,,,0.00,Wunderground v.1.15,2013-07-25 12:42:00,
2013-07-25 08:44:00,59.4,56.8,30.06,NNE,18,3.0,4.0,91,0.00,,,0.00,Wunderground v.1.15,2013-07-25 12:44:00,
2013-07-25 08:48:00,59.7,56.8,30.06,NNE,15,3.0,4.0,90,0.00,,,0.00,Wunderground v.1.15,2013-07-25 12:48:00,
2013-07-25 08:50:00,59.8,56.6,30.06,NNE,22,3.0,3.0,89,0.00,,,0.00,Wunderground v.1.15,2013-07-25 12:50:00,
2013-07-25 08:54:00,60.2,57.3,30.06,NNW,348,2.0,3.0,90,0.00,,,0.00,Wunderground v.1.15,2013-07-25 12:54:00,
2013-07-25 08:58:00,60.3,57.0,30.06,North,359,3.0,3.0,89,0.00,,,0.00,Wunderground v.1.15,2013-07-25 12:58:00,
2013-07-25 09:00:00,60.3,57.0,30.06,NNW,338,3.0,3.0,89,0.00,,,0.00,Wunderground v.1.15,2013-07-25 13:00:00,
2013-07-25 09:04:00,60.6,57.3,30.07,North,354,3.0,3.0,89,0.00,,,0.00,Wunderground v.1.15,2013-07-25 13:04:00,
2013-07-25 09:06:00,60.9,57.6,30.06,North,11,2.0,3.0,89,0.00,,,0.00,Wunderground v.1.15,2013-07-25 13:06:00,
2013-07-25 09:08:00,60.9,57.3,30.07,North,4,2.0,3.0,88,0.00,,,0.00,Wunderground v.1.15,2013-07-25 13:08:00,
2013-07-25 09:10:00,61.0,57.4,30.07,NNW,345,2.0,3.0,88,0.00,,,0.00,Wunderground v.1.15,2013-07-25 13:10:00,
2013-07-25 09:12:00,61.2,57.6,30.07,North,4,2.0,5.0,88,0.00,,,0.00,Wunderground v.1.15,2013-07-25 13:12:00,
2013-07-25 09:14:00,61.4,57.8,30.07,North,8,2.0,5.0,88,0.00,,,0.00,Wunderground v.1.15,2013-07-25 13:14:00,
2013-07-25 09:18:00,61.9,58.0,30.06,NNE,31,2.0,5.0,87,0.00,,,0.00,Wunderground v.1.15,2013-07-25 13:18:00,
2013-07-25 09:24:00,63.0,58.4,30.07,ENE,77,1.0,3.0,85,0.00,,,0.00,Wunderground v.1.15,2013-07-25 13:24:00,
2013-07-25 09:26:00,63.3,58.7,30.07,NNE,22,1.0,3.0,85,0.00,,,0.00,Wunderground v.1.15,2013-07-25 13:26:00,
2013-07-25 09:28:00,63.5,58.2,30.07,NE,37,1.0,3.0,83,0.00,,,0.00,Wunderground v.1.15,2013-07-25 13:28:00,
2013-07-25 09:32:00,63.7,58.4,30.07,North,359,2.0,4.0,83,0.00,,,0.00,Wunderground v.1.15,2013-07-25 13:32:00,
2013-07-25 09:34:00,63.6,58.7,30.06,NE,39,2.0,4.0,84,0.00,,,0.00,Wunderground v.1.15,2013-07-25 13:34:00,
2013-07-25 09:38:00,63.8,58.9,30.07,NNE,12,2.0,4.0,84,0.00,,,0.00,Wunderground v.1.15,2013-07-25 13:38:00,
2013-07-25 09:40:00,64.0,58.7,30.07,North,349,2.0,4.0,83,0.00,,,0.00,Wunderground v.1.15,2013-07-25 13:40:00,
2013-07-25 09:42:00,63.9,58.6,30.07,North,4,2.0,4.0,83,0.00,,,0.00,Wunderground v.1.15,2013-07-25 13:42:00,
2013-07-25 09:44:00,64.0,58.7,30.07,NNW,347,2.0,4.0,83,0.00,,,0.00,Wunderground v.1.15,2013-07-25 13:44:00,
2013-07-25 09:50:00,63.9,58.3,30.07,NNE,18,3.0,4.0,82,0.00,,,0.00,Wunderground v.1.15,2013-07-25 13:50:00,
2013-07-25 09:52:00,64.0,58.4,30.07,NNE,18,3.0,4.0,82,0.00,,,0.00,Wunderground v.1.15,2013-07-25 13:52:00,
2013-07-25 09:54:00,64.1,58.1,30.07,NNW,333,3.0,4.0,81,0.00,,,0.00,Wunderground v.1.15,2013-07-25 13:54:00,
2013-07-25 09:58:00,64.3,58.3,30.07,NNW,331,3.0,4.0,81,0.00,,,0.00,Wunderground v.1.15,2013-07-25 13:58:00,
2013-07-25 10:00:00,64.5,58.9,30.07,North,354,3.0,4.0,82,0.00,,,0.00,Wunderground v.1.15,2013-07-25 14:00:00,
2013-07-25 10:02:00,64.6,59.0,30.07,NE,54,3.0,5.0,82,0.00,,,0.00,Wunderground v.1.15,2013-07-25 14:02:00,
2013-07-25 10:08:00,65.4,59.4,30.07,NNE,21,3.0,6.0,81,0.00,,,0.00,Wunderground v.1.15,2013-07-25 14:08:00,
2013-07-25 10:10:00,65.6,59.3,30.07,NNW,339,3.0,4.0,80,0.00,,,0.00,Wunderground v.1.15,2013-07-25 14:10:00,
2013-07-25 10:16:00,65.8,57.7,30.07,NE,38,3.0,4.0,75,0.00,,,0.00,Wunderground v.1.15,2013-07-25 14:16:00,
2013-07-25 10:18:00,65.9,57.7,30.07,NNE,33,3.0,4.0,75,0.00,,,0.00,Wunderground v.1.15,2013-07-25 14:18:00,
2013-07-25 10:20:00,66.2,58.0,30.07,NE,45,4.0,8.0,75,0.00,,,0.00,Wunderground v.1.15,2013-07-25 14:20:00,
2013-07-25 10:22:00,66.4,58.2,30.07,NE,34,4.0,8.0,75,0.00,,,0.00,Wunderground v.1.15,2013-07-25 14:22:00,
2013-07-25 10:28:00,67.0,58.4,30.08,NE,44,4.0,8.0,74,0.00,,,0.00,Wunderground v.1.15,2013-07-25 14:28:00,
2013-07-25 10:30:00,67.4,59.2,30.08,North,4,4.0,4.0,75,0.00,,,0.00,Wunderground v.1.15,2013-07-25 14:30:00,
2013-07-25 10:32:00,67.8,58.8,30.08,NE,44,3.0,4.0,73,0.00,,,0.00,Wunderground v.1.15,2013-07-25 14:32:00,
2013-07-25 10:34:00,68.0,57.4,30.08,North,10,3.0,5.0,69,0.00,,,0.00,Wunderground v.1.15,2013-07-25 14:34:00,
2013-07-25 10:36:00,68.0,57.0,30.09,NE,34,3.0,6.0,68,0.00,,,0.00,Wunderground v.1.15,2013-07-25 14:36:00,
2013-07-25 10:38:00,68.1,57.5,30.09,NNE,17,4.0,7.0,69,0.00,,,0.00,Wunderground v.1.15,2013-07-25 14:38:00,
2013-07-25 10:40:00,68.1,56.7,30.09,NNE,28,5.0,5.0,67,0.00,,,0.00,Wunderground v.1.15,2013-07-25 14:40:00,
2013-07-25 10:44:00,68.1,57.5,30.09,North,9,5.0,6.0,69,0.00,,,0.00,Wunderground v.1.15,2013-07-25 14:44:00,
2013-07-25 10:50:00,68.1,57.5,30.08,ENE,66,5.0,5.0,69,0.00,,,0.00,Wunderground v.1.15,2013-07-25 14:50:00,
2013-07-25 10:52:00,68.3,58.1,30.08,ENE,66,5.0,7.0,70,0.00,,,0.00,Wunderground v.1.15,2013-07-25 14:52:00,
2013-07-25 10:54:00,68.5,58.3,30.08,NNE,14,4.0,7.0,70,0.00,,,0.00,Wunderground v.1.15,2013-07-25 14:54:00,
2013-07-25 11:00:00,68.8,56.6,30.09,NE,45,4.0,4.0,65,0.00,,,0.00,Wunderground v.1.15,2013-07-25 15:00:00,
2013-07-25 11:02:00,68.8,57.4,30.08,NE,38,4.0,4.0,67,0.00,,,0.00,Wunderground v.1.15,2013-07-25 15:02:00,
2013-07-25 11:04:00,68.8,57.0,30.09,North,11,4.0,8.0,66,0.00,,,0.00,Wunderground v.1.15,2013-07-25 15:04:00,
2013-07-25 11:10:00,68.8,57.4,30.08,North,354,5.0,5.0,67,0.00,,,0.00,Wunderground v.1.15,2013-07-25 15:10:00,
2013-07-25 11:12:00,68.8,56.6,30.08,NE,41,5.0,5.0,65,0.00,,,0.00,Wunderground v.1.15,2013-07-25 15:12:00,
2013-07-25 11:14:00,68.9,57.9,30.08,NNE,33,4.0,5.0,68,0.00,,,0.00,Wunderground v.1.15,2013-07-25 15:14:00,
2013-07-25 11:18:00,68.9,57.1,30.07,NNE,14,4.0,6.0,66,0.00,,,0.00,Wunderground v.1.15,2013-07-25 15:18:00,
2013-07-25 11:20:00,68.9,57.5,30.07,NNE,27,5.0,12.0,67,0.00,,,0.00,Wunderground v.1.15,2013-07-25 15:20:00,
2013-07-25 11:22:00,68.9,57.5,30.07,North,4,5.0,12.0,67,0.00,,,0.00,Wunderground v.1.15,2013-07-25 15:22:00,
2013-07-25 11:24:00,69.0,58.4,30.07,NNE,19,6.0,12.0,69,0.00,,,0.00,Wunderground v.1.15,2013-07-25 15:24:00,
2013-07-25 11:28:00,69.1,56.8,30.08,NE,36,6.0,12.0,65,0.00,,,0.00,Wunderground v.1.15,2013-07-25 15:28:00,
2013-07-25 11:30:00,69.0,56.3,30.08,North,354,7.0,7.0,64,0.00,,,0.00,Wunderground v.1.15,2013-07-25 15:30:00,
2013-07-25 11:36:00,68.9,57.9,30.08,NNE,18,7.0,7.0,68,0.00,,,0.00,Wunderground v.1.15,2013-07-25 15:36:00,
2013-07-25 11:38:00,69.0,57.2,30.08,NNE,31,6.0,8.0,66,0.00,,,0.00,Wunderground v.1.15,2013-07-25 15:38:00,
2013-07-25 11:40:00,69.2,57.4,30.08,NNE,22,6.0,6.0,66,0.00,,,0.00,Wunderground v.1.15,2013-07-25 15:40:00,
2013-07-25 11:42:00,69.3,57.0,30.08,NNE,12,6.0,7.0,65,0.00,,,0.00,Wunderground v.1.15,2013-07-25 15:42:00,
2013-07-25 11:44:00,69.2,56.5,30.08,NNW,328,6.0,7.0,64,0.00,,,0.00,Wunderground v.1.15,2013-07-25 15:44:00,
2013-07-25 11:48:00,69.3,55.7,30.08,ENE,73,7.0,7.0,62,0.00,,,0.00,Wunderground v.1.15,2013-07-25 15:48:00,
2013-07-25 11:50:00,69.5,56.8,30.08,NNE,27,6.0,6.0,64,0.00,,,0.00,Wunderground v.1.15,2013-07-25 15:50:00,
2013-07-25 11:54:00,70.0,58.1,30.08,ENE,58,5.0,7.0,66,0.00,,,0.00,Wunderground v.1.15,2013-07-25 15:54:00,
2013-07-25 12:00:00,70.5,57.7,30.08,North,4,5.0,6.0,64,0.00,,,0.00,Wunderground v.1.15,2013-07-25 16:00:00,
2013-07-25 12:04:00,70.4,55.8,30.08,North,11,7.0,9.0,60,0.00,,,0.00,Wunderground v.1.15,2013-07-25 16:04:00,
2013-07-25 12:08:00,70.1,58.2,30.08,NNE,31,7.0,9.0,66,0.00,,,0.00,Wunderground v.1.15,2013-07-25 16:08:00,
2013-07-25 12:10:00,70.3,56.7,30.08,North,359,7.0,7.0,62,0.00,,,0.00,Wunderground v.1.15,2013-07-25 16:10:00,
2013-07-25 12:12:00,70.6,56.9,30.08,NNE,22,7.0,7.0,62,0.00,,,0.00,Wunderground v.1.15,2013-07-25 16:12:00,
2013-07-25 12:14:00,70.9,56.8,30.08,ENE,60,6.0,7.0,61,0.00,,,0.00,Wunderground v.1.15,2013-07-25 16:14:00,
2013-07-25 12:18:00,70.9,56.3,30.08,ENE,72,6.0,8.0,60,0.00,,,0.00,Wunderground v.1.15,2013-07-25 16:18:00,
2013-07-25 12:20:00,71.0,56.4,30.08,NE,39,6.0,7.0,60,0.00,,,0.00,Wunderground v.1.15,2013-07-25 16:20:00,
2013-07-25 12:22:00,71.0,56.9,30.08,NNE,16,6.0,7.0,61,0.00,,,0.00,Wunderground v.1.15,2013-07-25 16:22:00,
2013-07-25 12:26:00,71.4,57.7,30.09,NNE,29,5.0,7.0,62,0.00,,,0.00,Wunderground v.1.15,2013-07-25 16:26:00,
2013-07-25 12:28:00,71.4,57.7,30.09,NE,54,4.0,7.0,62,0.00,,,0.00,Wunderground v.1.15,2013-07-25 16:28:00,
2013-07-25 12:30:00,71.4,57.7,30.09,North,4,5.0,8.0,62,0.00,,,0.00,Wunderground v.1.15,2013-07-25 16:30:00,
2013-07-25 12:32:00,71.4,57.7,30.09,NE,41,5.0,8.0,62,0.00,,,0.00,Wunderground v.1.15,2013-07-25 16:32:00,
2013-07-25 12:34:00,71.4,56.8,30.09,NNE,29,6.0,8.0,60,0.00,,,0.00,Wunderground v.1.15,2013-07-25 16:34:00,
2013-07-25 12:38:00,71.1,55.1,30.09,NNE,23,7.0,8.0,57,0.00,,,0.00,Wunderground v.1.15,2013-07-25 16:38:00,
2013-07-25 12:40:00,71.0,55.9,30.09,North,8,8.0,8.0,59,0.00,,,0.00,Wunderground v.1.15,2013-07-25 16:40:00,
2013-07-25 12:42:00,71.2,57.1,30.09,NE,43,8.0,8.0,61,0.00,,,0.00,Wunderground v.1.15,2013-07-25 16:42:00,
2013-07-25 12:48:00,71.6,57.0,30.09,North,4,6.0,8.0,60,0.00,,,0.00,Wunderground v.1.15,2013-07-25 16:48:00,
2013-07-25 12:50:00,71.6,56.0,30.09,NE,37,5.0,5.0,58,0.00,,,0.00,Wunderground v.1.15,2013-07-25 16:50:00,
2013-07-25 12:52:00,71.7,56.6,30.08,NE,50,5.0,5.0,59,0.00,,,0.00,Wunderground v.1.15,2013-07-25 16:52:00,
2013-07-25 12:54:00,71.9,56.8,30.08,NNW,346,5.0,6.0,59,0.00,,,0.00,Wunderground v.1.15,2013-07-25 16:54:00,
2013-07-25 12:56:00,71.9,56.8,30.08,NNE,16,5.0,6.0,59,0.00,,,0.00,Wunderground v.1.15,2013-07-25 16:56:00,
2013-07-25 12:58:00,71.8,55.7,30.08,NNE,12,5.0,10.0,57,0.00,,,0.00,Wunderground v.1.15,2013-07-25 16:58:00,
2013-07-25 13:00:00,71.6,56.5,30.08,North,359,6.0,7.0,59,0.00,,,0.00,Wunderground v.1.15,2013-07-25 17:00:00,
2013-07-25 13:02:00,71.7,57.1,30.08,NNE,31,7.0,7.0,60,0.00,,,0.00,Wunderground v.1.15,2013-07-25 17:02:00,
2013-07-25 13:04:00,71.9,57.3,30.08,NNE,31,7.0,7.0,60,0.00,,,0.00,Wunderground v.1.15,2013-07-25 17:04:00,
2013-07-25 13:06:00,71.9,57.3,30.08,North,359,7.0,7.0,60,0.00,,,0.00,Wunderground v.1.15,2013-07-25 17:06:00,
2013-07-25 13:12:00,71.9,56.3,30.08,NW,314,6.0,8.0,58,0.00,,,0.00,Wunderground v.1.15,2013-07-25 17:12:00,
2013-07-25 13:14:00,71.9,57.3,30.08,NW,320,6.0,8.0,60,0.00,,,0.00,Wunderground v.1.15,2013-07-25 17:14:00,
2013-07-25 13:16:00,71.9,57.3,30.09,NW,317,6.0,8.0,60,0.00,,,0.00,Wunderground v.1.15,2013-07-25 17:16:00,
2013-07-25 13:18:00,72.0,57.4,30.09,North,4,6.0,8.0,60,0.00,,,0.00,Wunderground v.1.15,2013-07-25 17:18:00,
2013-07-25 13:20:00,72.1,58.8,30.08,NNE,33,6.0,6.0,63,0.00,,,0.00,Wunderground v.1.15,2013-07-25 17:20:00,
2013-07-25 13:22:00,72.4,57.7,30.08,North,10,6.0,6.0,60,0.00,,,0.00,Wunderground v.1.15,2013-07-25 17:22:00,
2013-07-25 13:26:00,73.0,58.8,30.08,NNE,25,5.0,9.0,61,0.00,,,0.00,Wunderground v.1.15,2013-07-25 17:26:00,
2013-07-25 13:30:00,72.8,57.2,30.08,NNE,14,6.0,6.0,58,0.00,,,0.00,Wunderground v.1.15,2013-07-25 17:30:00,
2013-07-25 13:32:00,72.6,56.0,30.08,North,359,6.0,6.0,56,0.00,,,0.00,Wunderground v.1.15,2013-07-25 17:32:00,
2013-07-25 13:34:00,72.6,56.0,30.08,North,354,6.0,6.0,56,0.00,,,0.00,Wunderground v.1.15,2013-07-25 17:34:00,
2013-07-25 13:36:00,72.6,57.4,30.08,NNE,16,5.0,6.0,59,0.00,,,0.00,Wunderground v.1.15,2013-07-25 17:36:00,
2013-07-25 13:38:00,73.0,57.3,30.08,NNE,17,4.0,6.0,58,0.00,,,0.00,Wunderground v.1.15,2013-07-25 17:38:00,
2013-07-25 13:42:00,74.1,58.9,30.08,East,91,3.0,9.0,59,0.00,,,0.00,Wunderground v.1.15,2013-07-25 17:42:00,
2013-07-25 13:44:00,74.4,56.2,30.08,East,82,4.0,9.0,53,0.00,,,0.00,Wunderground v.1.15,2013-07-25 17:44:00,
2013-07-25 13:50:00,74.1,56.9,30.09,NW,308,4.0,6.0,55,0.00,,,0.00,Wunderground v.1.15,2013-07-25 17:50:00,
2013-07-25 13:52:00,73.5,57.8,30.08,NE,46,4.0,6.0,58,0.00,,,0.00,Wunderground v.1.15,2013-07-25 17:52:00,
2013-07-25 13:54:00,73.5,58.8,30.08,North,359,5.0,7.0,60,0.00,,,0.00,Wunderground v.1.15,2013-07-25 17:54:00,
2013-07-25 14:00:00,73.1,58.4,30.08,NNE,17,6.0,7.0,60,0.00,,,0.00,Wunderground v.1.15,2013-07-25 18:00:00,
2013-07-25 14:02:00,72.9,56.3,30.08,NNW,343,6.0,7.0,56,0.00,,,0.00,Wunderground v.1.15,2013-07-25 18:02:00,
2013-07-25 14:04:00,72.7,56.1,30.08,NW,308,6.0,7.0,56,0.00,,,0.00,Wunderground v.1.15,2013-07-25 18:04:00,
2013-07-25 14:06:00,72.5,56.4,30.08,NNE,18,5.0,8.0,57,0.00,,,0.00,Wunderground v.1.15,2013-07-25 18:06:00,
2013-07-25 14:08:00,72.3,56.7,30.08,NNW,327,5.0,8.0,58,0.00,,,0.00,Wunderground v.1.15,2013-07-25 18:08:00,
2013-07-25 14:14:00,73.4,58.2,30.08,NNE,24,5.0,9.0,59,0.00,,,0.00,Wunderground v.1.15,2013-07-25 18:14:00,
2013-07-25 14:20:00,73.9,59.1,30.08,North,359,5.0,5.0,60,0.00,,,0.00,Wunderground v.1.15,2013-07-25 18:20:00,
2013-07-25 14:22:00,74.2,57.5,30.08,North,354,5.0,5.0,56,0.00,,,0.00,Wunderground v.1.15,2013-07-25 18:22:00,
2013-07-25 14:26:00,74.1,56.4,30.08,North,11,4.0,5.0,54,0.00,,,0.00,Wunderground v.1.15,2013-07-25 18:26:00,
2013-07-25 14:28:00,74.1,57.4,30.08,ENE,78,4.0,5.0,56,0.00,,,0.00,Wunderground v.1.15,2013-07-25 18:28:00,
2013-07-25 14:34:00,74.9,56.1,30.08,NE,38,4.0,9.0,52,0.00,,,0.00,Wunderground v.1.15,2013-07-25 18:34:00,
2013-07-25 14:38:00,75.2,56.9,30.08,ENE,58,5.0,9.0,53,0.00,,,0.00,Wunderground v.1.15,2013-07-25 18:38:00,
2013-07-25 14:40:00,75.4,58.1,30.08,North,4,5.0,5.0,55,0.00,,,0.00,Wunderground v.1.15,2013-07-25 18:40:00,
2013-07-25 14:46:00,76.4,60.0,30.08,North,359,2.0,6.0,57,0.00,,,0.00,Wunderground v.1.15,2013-07-25 18:46:00,
2013-07-25 14:48:00,76.4,60.0,30.08,North,359,2.0,6.0,57,0.00,,,0.00,Wunderground v.1.15,2013-07-25 18:48:00,
2013-07-25 14:50:00,76.3,58.4,30.08,NNW,347,2.0,4.0,54,0.00,,,0.00,Wunderground v.1.15,2013-07-25 18:50:00,
2013-07-25 14:56:00,74.6,58.4,30.08,ENE,60,5.0,10.0,57,0.00,,,0.00,Wunderground v.1.15,2013-07-25 18:56:00,
2013-07-25 14:58:00,74.6,57.4,30.08,ENE,66,5.0,10.0,55,0.00,,,0.00,Wunderground v.1.15,2013-07-25 18:58:00,
2013-07-25 15:00:00,74.8,57.5,30.08,NE,54,5.0,5.0,55,0.00,,,0.00,Wunderground v.1.15,2013-07-25 19:00:00,
2013-07-25 15:04:00,74.8,57.5,30.08,East,91,5.0,5.0,55,0.00,,,0.00,Wunderground v.1.15,2013-07-25 19:04:00,
2013-07-25 15:06:00,75.0,57.2,30.08,East,82,4.0,5.0,54,0.00,,,0.00,Wunderground v.1.15,2013-07-25 19:06:00,
2013-07-25 15:12:00,75.6,56.7,30.08,NE,37,4.0,7.0,52,0.00,,,0.00,Wunderground v.1.15,2013-07-25 19:12:00,
2013-07-25 15:14:00,75.4,56.0,30.08,North,8,3.0,7.0,51,0.00,,,0.00,Wunderground v.1.15,2013-07-25 19:14:00,
2013-07-25 15:18:00,74.9,56.6,30.07,North,11,4.0,7.0,53,0.00,,,0.00,Wunderground v.1.15,2013-07-25 19:18:00,
2013-07-25 15:20:00,74.6,56.9,30.07,NE,41,4.0,5.0,54,0.00,,,0.00,Wunderground v.1.15,2013-07-25 19:20:00,
2013-07-25 15:22:00,74.5,56.2,30.07,ENE,60,4.0,5.0,53,0.00,,,0.00,Wunderground v.1.15,2013-07-25 19:22:00,
2013-07-25 15:26:00,75.1,56.8,30.07,NW,318,4.0,5.0,53,0.00,,,0.00,Wunderground v.1.15,2013-07-25 19:26:00,
2013-07-25 15:28:00,74.9,56.6,30.07,North,354,4.0,7.0,53,0.00,,,0.00,Wunderground v.1.15,2013-07-25 19:28:00,
2013-07-25 15:32:00,74.8,56.5,30.07,NW,307,4.0,7.0,53,0.00,,,0.00,Wunderground v.1.15,2013-07-25 19:32:00,
2013-07-25 15:34:00,74.7,56.4,30.07,NW,318,4.0,7.0,53,0.00,,,0.00,Wunderground v.1.15,2013-07-25 19:34:00,
2013-07-25 15:36:00,74.9,57.6,30.07,NNW,337,3.0,7.0,55,0.00,,,0.00,Wunderground v.1.15,2013-07-25 19:36:00,
2013-07-25 15:42:00,75.0,56.7,30.07,NNW,330,3.0,9.0,53,0.00,,,0.00,Wunderground v.1.15,2013-07-25 19:42:00,
2013-07-25 15:44:00,75.0,57.7,30.07,NNE,32,4.0,9.0,55,0.00,,,0.00,Wunderground v.1.15,2013-07-25 19:44:00,
2013-07-25 15:48:00,75.1,57.8,30.07,NE,37,5.0,9.0,55,0.00,,,0.00,Wunderground v.1.15,2013-07-25 19:48:00,
2013-07-25 15:50:00,75.2,56.9,30.07,North,11,5.0,5.0,53,0.00,,,0.00,Wunderground v.1.15,2013-07-25 19:50:00,
2013-07-25 15:55:00,76.1,57.7,30.07,NNW,340,4.0,5.0,53,0.00,,,0.00,Wunderground v.1.15,2013-07-25 19:55:00,
2013-07-25 15:56:00,76.6,59.2,30.06,ENE,66,3.0,5.0,55,0.00,,,0.00,Wunderground v.1.15,2013-07-25 19:56:00,
2013-07-25 16:00:00,78.1,59.6,30.07,WNW,301,1.0,3.0,53,0.00,,,0.00,Wunderground v.1.15,2013-07-25 20:00:00,
2013-07-25 16:02:00,78.0,58.9,30.07,North,354,2.0,4.0,52,0.00,,,0.00,Wunderground v.1.15,2013-07-25 20:02:00,
2013-07-25 16:06:00,77.0,57.5,30.07,ENE,62,3.0,4.0,51,0.00,,,0.00,Wunderground v.1.15,2013-07-25 20:06:00,
2013-07-25 16:08:00,76.6,57.7,30.07,East,81,3.0,4.0,52,0.00,,,0.00,Wunderground v.1.15,2013-07-25 20:08:00,
2013-07-25 16:10:00,76.6,58.2,30.07,ENE,68,4.0,4.0,53,0.00,,,0.00,Wunderground v.1.15,2013-07-25 20:10:00,
2013-07-25 16:12:00,76.7,57.7,30.07,East,85,3.0,4.0,52,0.00,,,0.00,Wunderground v.1.15,2013-07-25 20:12:00,
2013-07-25 16:16:00,76.1,57.2,30.07,NNE,25,3.0,6.0,52,0.00,,,0.00,Wunderground v.1.15,2013-07-25 20:16:00,
2013-07-25 16:18:00,75.8,57.4,30.07,NNE,23,3.0,6.0,53,0.00,,,0.00,Wunderground v.1.15,2013-07-25 20:18:00,
2013-07-25 16:20:00,75.6,58.3,30.07,North,359,3.0,3.0,55,0.00,,,0.00,Wunderground v.1.15,2013-07-25 20:20:00,
2013-07-25 16:24:00,76.1,58.2,30.06,NE,35,3.0,3.0,54,0.00,,,0.00,Wunderground v.1.15,2013-07-25 20:24:00,
2013-07-25 16:26:00,76.5,59.6,30.06,NW,321,2.0,5.0,56,0.00,,,0.00,Wunderground v.1.15,2013-07-25 20:26:00,
2013-07-25 16:28:00,76.4,59.5,30.06,North,8,2.0,5.0,56,0.00,,,0.00,Wunderground v.1.15,2013-07-25 20:28:00,
2013-07-25 16:32:00,76.0,59.2,30.06,North,354,3.0,6.0,56,0.00,,,0.00,Wunderground v.1.15,2013-07-25 20:32:00,
2013-07-25 16:34:00,75.8,58.0,30.06,WNW,303,4.0,6.0,54,0.00,,,0.00,Wunderground v.1.15,2013-07-25 20:34:00,
2013-07-25 16:40:00,75.8,57.4,30.06,NNE,23,5.0,6.0,53,0.00,,,0.00,Wunderground v.1.15,2013-07-25 20:40:00,
2013-07-25 16:46:00,76.2,58.3,30.06,West,270,5.0,6.0,54,0.00,,,0.00,Wunderground v.1.15,2013-07-25 20:46:00,
2013-07-25 16:48:00,75.9,58.1,30.06,NW,316,5.0,6.0,54,0.00,,,0.00,Wunderground v.1.15,2013-07-25 20:48:00,
2013-07-25 16:52:00,75.7,58.4,30.06,NNW,328,5.0,5.0,55,0.00,,,0.00,Wunderground v.1.15,2013-07-25 20:52:00,
2013-07-25 16:54:00,75.9,59.1,30.06,NW,314,5.0,5.0,56,0.00,,,0.00,Wunderground v.1.15,2013-07-25 20:54:00,
2013-07-25 16:58:00,75.8,59.0,30.06,NNE,14,5.0,6.0,56,0.00,,,0.00,Wunderground v.1.15,2013-07-25 20:58:00,
2013-07-25 17:00:00,76.1,58.2,30.06,NNE,23,5.0,5.0,54,0.00,,,0.00,Wunderground v.1.15,2013-07-25 21:00:00,
2013-07-25 17:02:00,76.2,56.7,30.06,NNE,26,5.0,5.0,51,0.00,,,0.00,Wunderground v.1.15,2013-07-25 21:02:00,
2013-07-25 17:06:00,77.7,60.2,30.06,NE,43,3.0,5.0,55,0.00,,,0.00,Wunderground v.1.15,2013-07-25 21:06:00,
2013-07-25 17:10:00,77.9,58.3,30.06,NW,316,3.0,4.0,51,0.00,,,0.00,Wunderground v.1.15,2013-07-25 21:10:00,
2013-07-25 17:12:00,77.4,58.9,30.06,NW,320,3.0,5.0,53,0.00,,,0.00,Wunderground v.1.15,2013-07-25 21:12:00,
2013-07-25 17:16:00,76.7,58.8,30.06,North,359,4.0,5.0,54,0.00,,,0.00,Wunderground v.1.15,2013-07-25 21:16:00,
2013-07-25 17:18:00,76.8,57.3,30.06,NNE,23,4.0,5.0,51,0.00,,,0.00,Wunderground v.1.15,2013-07-25 21:18:00,
2013-07-25 17:20:00,77.1,59.2,30.06,North,354,3.0,3.0,54,0.00,,,0.00,Wunderground v.1.15,2013-07-25 21:20:00,
2013-07-25 17:22:00,77.1,57.0,30.06,NW,305,3.0,3.0,50,0.00,,,0.00,Wunderground v.1.15,2013-07-25 21:22:00,
2013-07-25 17:24:00,76.7,57.7,30.06,NW,314,3.0,5.0,52,0.00,,,0.00,Wunderground v.1.15,2013-07-25 21:24:00,
2013-07-25 17:26:00,76.2,58.3,30.06,NNE,17,3.0,6.0,54,0.00,,,0.00,Wunderground v.1.15,2013-07-25 21:26:00,
2013-07-25 17:28:00,76.2,58.9,30.06,ENE,65,4.0,6.0,55,0.00,,,0.00,Wunderground v.1.15,2013-07-25 21:28:00,
2013-07-25 17:32:00,76.8,57.8,30.06,NNW,344,4.0,4.0,52,0.00,,,0.00,Wunderground v.1.15,2013-07-25 21:32:00,
2013-07-25 17:34:00,77.0,59.6,30.06,NNE,19,4.0,4.0,55,0.00,,,0.00,Wunderground v.1.15,2013-07-25 21:34:00,
2013-07-25 17:38:00,78.0,57.9,30.06,NE,48,2.0,4.0,50,0.00,,,0.00,Wunderground v.1.15,2013-07-25 21:38:00,
2013-07-25 17:40:00,78.1,58.5,30.06,NE,40,2.0,3.0,51,0.00,,,0.00,Wunderground v.1.15,2013-07-25 21:40:00,
2013-07-25 17:42:00,77.9,57.8,30.06,NE,48,2.0,3.0,50,0.00,,,0.00,Wunderground v.1.15,2013-07-25 21:42:00,
2013-07-25 17:46:00,77.7,58.7,30.06,North,4,3.0,3.0,52,0.00,,,0.00,Wunderground v.1.15,2013-07-25 21:46:00,
2013-07-25 17:48:00,77.5,57.9,30.06,NNE,24,3.0,3.0,51,0.00,,,0.00,Wunderground v.1.15,2013-07-25 21:48:00,
2013-07-25 17:54:00,76.5,57.6,30.06,NNE,19,3.0,4.0,52,0.00,,,0.00,Wunderground v.1.15,2013-07-25 21:54:00,
2013-07-25 17:56:00,76.5,58.1,30.06,NE,40,3.0,4.0,53,0.00,,,0.00,Wunderground v.1.15,2013-07-25 21:56:00,
2013-07-25 17:58:00,76.8,58.4,30.06,NE,41,3.0,4.0,53,0.00,,,0.00,Wunderground v.1.15,2013-07-25 21:58:00,
2013-07-25 18:00:00,77.3,58.3,30.06,NE,41,3.0,3.0,52,0.00,,,0.00,Wunderground v.1.15,2013-07-25 22:00:00,
2013-07-25 18:02:00,78.0,58.4,30.05,NE,38,2.0,3.0,51,0.00,,,0.00,Wunderground v.1.15,2013-07-25 22:02:00,
2013-07-25 18:04:00,78.8,59.1,30.05,NNE,15,1.0,4.0,51,0.00,,,0.00,Wunderground v.1.15,2013-07-25 22:04:00,
2013-07-25 18:06:00,78.9,58.1,30.05,North,4,2.0,8.0,49,0.00,,,0.00,Wunderground v.1.15,2013-07-25 22:06:00,
2013-07-25 18:08:00,78.5,58.9,30.06,NNE,16,2.0,8.0,51,0.00,,,0.00,Wunderground v.1.15,2013-07-25 22:08:00,
2013-07-25 18:10:00,78.0,58.4,30.06,North,10,3.0,6.0,51,0.00,,,0.00,Wunderground v.1.15,2013-07-25 22:10:00,
2013-07-25 18:14:00,77.6,59.1,30.06,North,8,5.0,6.0,53,0.00,,,0.00,Wunderground v.1.15,2013-07-25 22:14:00,
2013-07-25 18:16:00,77.6,58.0,30.05,NNE,13,4.0,6.0,51,0.00,,,0.00,Wunderground v.1.15,2013-07-25 22:16:00,
2013-07-25 18:22:00,77.5,57.4,30.05,NNE,16,4.0,4.0,50,0.00,,,0.00,Wunderground v.1.15,2013-07-25 22:22:00,
2013-07-25 18:26:00,77.4,58.4,30.05,NE,45,3.0,4.0,52,0.00,,,0.00,Wunderground v.1.15,2013-07-25 22:26:00,
2013-07-25 18:28:00,77.5,57.9,30.05,NNE,24,3.0,4.0,51,0.00,,,0.00,Wunderground v.1.15,2013-07-25 22:28:00,
2013-07-25 18:30:00,77.7,59.2,30.05,NNE,24,3.0,3.0,53,0.00,,,0.00,Wunderground v.1.15,2013-07-25 22:30:00,
2013-07-25 18:34:00,78.7,59.6,30.05,ENE,62,2.0,3.0,52,0.00,,,0.00,Wunderground v.1.15,2013-07-25 22:34:00,
2013-07-25 18:36:00,78.6,59.0,30.05,NE,50,2.0,3.0,51,0.00,,,0.00,Wunderground v.1.15,2013-07-25 22:36:00,
2013-07-25 18:38:00,78.3,59.8,30.05,NE,41,2.0,3.0,53,0.00,,,0.00,Wunderground v.1.15,2013-07-25 22:38:00,
2013-07-25 18:44:00,77.2,59.3,30.05,NNE,22,2.0,3.0,54,0.00,,,0.00,Wunderground v.1.15,2013-07-25 22:44:00,
2013-07-25 18:46:00,77.3,59.9,30.05,NNE,22,1.0,3.0,55,0.00,,,0.00,Wunderground v.1.15,2013-07-25 22:46:00,
2013-07-25 18:48:00,77.8,59.8,30.05,NNE,22,1.0,3.0,54,0.00,,,0.00,Wunderground v.1.15,2013-07-25 22:48:00,
2013-07-25 18:52:00,78.3,61.8,30.05,NNE,22,0.0,3.0,57,0.00,,,0.00,Wunderground v.1.15,2013-07-25 22:52:00,
2013-07-25 18:54:00,78.4,62.4,30.05,NNE,22,0.0,3.0,58,0.00,,,0.00,Wunderground v.1.15,2013-07-25 22:54:00,
2013-07-25 18:56:00,78.4,60.4,30.05,NNE,22,0.0,3.0,54,0.00,,,0.00,Wunderground v.1.15,2013-07-25 22:56:00,
2013-07-25 19:02:00,80.0,60.8,30.05,NNE,20,0.0,3.0,52,0.00,,,0.00,Wunderground v.1.15,2013-07-25 23:02:00,
2013-07-25 19:04:00,80.1,59.2,30.05,NNW,347,0.0,3.0,49,0.00,,,0.00,Wunderground v.1.15,2013-07-25 23:04:00,
2013-07-25 19:10:00,77.8,59.3,30.06,NW,319,2.0,5.0,53,0.00,,,0.00,Wunderground v.1.15,2013-07-25 23:10:00,
2013-07-25 19:14:00,76.4,59.5,30.05,NNW,342,3.0,5.0,56,0.00,,,0.00,Wunderground v.1.15,2013-07-25 23:14:00,
2013-07-25 19:16:00,75.9,58.6,30.05,NW,305,4.0,5.0,55,0.00,,,0.00,Wunderground v.1.15,2013-07-25 23:16:00,
2013-07-25 19:20:00,75.2,58.9,30.05,WNW,300,5.0,5.0,57,0.00,,,0.00,Wunderground v.1.15,2013-07-25 23:20:00,
2013-07-25 19:22:00,74.9,58.6,30.05,NNW,343,4.0,5.0,57,0.00,,,0.00,Wunderground v.1.15,2013-07-25 23:22:00,
2013-07-25 19:26:00,74.7,59.9,30.05,NNW,331,3.0,5.0,60,0.00,,,0.00,Wunderground v.1.15,2013-07-25 23:26:00,
2013-07-25 19:28:00,74.8,59.0,30.05,NNW,332,2.0,5.0,58,0.00,,,0.00,Wunderground v.1.15,2013-07-25 23:28:00,
2013-07-25 19:30:00,74.7,59.4,30.05,NW,308,2.0,3.0,59,0.00,,,0.00,Wunderground v.1.15,2013-07-25 23:30:00,
2013-07-25 19:34:00,74.9,61.0,30.05,NNW,342,2.0,3.0,62,0.00,,,0.00,Wunderground v.1.15,2013-07-25 23:34:00,
2013-07-25 19:36:00,75.0,59.7,30.05,NW,312,2.0,3.0,59,0.00,,,0.00,Wunderground v.1.15,2013-07-25 23:36:00,
2013-07-25 19:38:00,75.0,60.2,30.05,NW,312,2.0,3.0,60,0.00,,,0.00,Wunderground v.1.15,2013-07-25 23:38:00,
2013-07-25 19:42:00,75.4,61.0,30.05,NW,312,2.0,3.0,61,0.00,,,0.00,Wunderground v.1.15,2013-07-25 23:42:00,
2013-07-25 19:44:00,75.9,61.0,30.05,NW,324,2.0,3.0,60,0.00,,,0.00,Wunderground v.1.15,2013-07-25 23:44:00,
2013-07-25 19:50:00,76.3,60.4,30.05,NNE,26,1.0,3.0,58,0.00,,,0.00,Wunderground v.1.15,2013-07-25 23:50:00,
2013-07-25 19:52:00,76.4,60.5,30.05,NNE,26,2.0,3.0,58,0.00,,,0.00,Wunderground v.1.15,2013-07-25 23:52:00,
2013-07-25 19:56:00,77.1,61.2,30.05,NNE,26,1.0,3.0,58,0.00,,,0.00,Wunderground v.1.15,2013-07-25 23:56:00,
2013-07-25 20:00:00,77.7,60.8,30.05,NNE,26,1.0,3.0,56,0.00,,,0.00,Wunderground v.1.15,2013-07-26 00:00:00,
2013-07-25 20:02:00,77.6,61.7,30.05,NNE,26,1.0,3.0,58,0.00,,,0.00,Wunderground v.1.15,2013-07-26 00:02:00,
2013-07-25 20:04:00,77.5,61.1,30.05,NNE,26,0.0,3.0,57,0.00,,,0.00,Wunderground v.1.15,2013-07-26 00:04:00,
2013-07-25 20:10:00,76.6,61.2,30.05,North,354,1.0,3.0,59,0.00,,,0.00,Wunderground v.1.15,2013-07-26 00:10:00,
2013-07-25 20:14:00,75.6,61.2,30.05,NNW,339,1.0,3.0,61,0.00,,,0.00,Wunderground v.1.15,2013-07-26 00:14:00,
2013-07-25 20:16:00,75.3,60.5,30.05,NNW,339,1.0,3.0,60,0.00,,,0.00,Wunderground v.1.15,2013-07-26 00:16:00,
2013-07-25 20:18:00,75.1,61.2,30.05,NW,314,1.0,3.0,62,0.00,,,0.00,Wunderground v.1.15,2013-07-26 00:18:00,
2013-07-25 20:20:00,74.8,60.4,30.05,NW,314,1.0,3.0,61,0.00,,,0.00,Wunderground v.1.15,2013-07-26 00:20:00,
2013-07-25 20:22:00,74.6,61.2,30.05,NW,314,1.0,3.0,63,0.00,,,0.00,Wunderground v.1.15,2013-07-26 00:22:00,
2013-07-25 20:24:00,74.4,61.0,30.05,NW,314,1.0,3.0,63,0.00,,,0.00,Wunderground v.1.15,2013-07-26 00:24:00,
2013-07-25 20:30:00,74.1,61.1,30.05,NW,314,1.0,1.0,64,0.00,,,0.00,Wunderground v.1.15,2013-07-26 00:30:00,
2013-07-25 20:36:00,74.3,62.2,30.06,NW,314,0.0,3.0,66,0.00,,,0.00,Wunderground v.1.15,2013-07-26 00:36:00,
2013-07-25 20:38:00,74.3,62.2,30.06,NW,314,0.0,3.0,66,0.00,,,0.00,Wunderground v.1.15,2013-07-26 00:38:00,
2013-07-25 20:40:00,74.2,62.5,30.05,NW,314,0.0,3.0,67,0.00,,,0.00,Wunderground v.1.15,2013-07-26 00:40:00,
2013-07-25 20:42:00,74.2,63.0,30.05,NW,314,0.0,3.0,68,0.00,,,0.00,Wunderground v.1.15,2013-07-26 00:42:00,
2013-07-25 20:44:00,74.3,63.5,30.06,NW,314,0.0,3.0,69,0.00,,,0.00,Wunderground v.1.15,2013-07-26 00:44:00,
2013-07-25 20:48:00,74.3,63.5,30.06,NW,314,0.0,3.0,69,0.00,,,0.00,Wunderground v.1.15,2013-07-26 00:48:00,
2013-07-25 20:50:00,74.3,63.1,30.06,NW,314,0.0,3.0,68,0.00,,,0.00,Wunderground v.1.15,2013-07-26 00:50:00,
2013-07-25 20:52:00,74.0,62.8,30.06,NW,314,0.0,3.0,68,0.00,,,0.00,Wunderground v.1.15,2013-07-26 00:52:00,
2013-07-25 20:54:00,73.8,61.7,30.06,NW,314,0.0,3.0,66,0.00,,,0.00,Wunderground v.1.15,2013-07-26 00:54:00,
2013-07-25 20:56:00,73.7,62.9,30.06,NW,314,0.0,3.0,69,0.00,,,0.00,Wunderground v.1.15,2013-07-26 00:56:00,
2013-07-25 20:58:00,73.7,63.3,30.06,NW,314,0.0,3.0,70,0.00,,,0.00,Wunderground v.1.15,2013-07-26 00:58:00,
2013-07-25 21:00:00,73.7,63.7,30.05,NW,314,0.0,3.0,71,0.00,,,0.00,Wunderground v.1.15,2013-07-26 01:00:00,
2013-07-25 21:02:00,73.6,63.6,30.05,NW,314,0.0,3.0,71,0.00,,,0.00,Wunderground v.1.15,2013-07-26 01:02:00,
2013-07-25 21:04:00,73.5,63.1,30.05,NW,314,0.0,3.0,70,0.00,,,0.00,Wunderground v.1.15,2013-07-26 01:04:00,
2013-07-25 21:08:00,73.2,63.2,30.05,NW,314,0.0,3.0,71,0.00,,,0.00,Wunderground v.1.15,2013-07-26 01:08:00,
2013-07-25 21:10:00,73.0,63.4,30.05,NW,314,0.0,3.0,72,0.00,,,0.00,Wunderground v.1.15,2013-07-26 01:10:00,
2013-07-25 21:12:00,72.5,62.6,30.05,NW,314,0.0,3.0,71,0.00,,,0.00,Wunderground v.1.15,2013-07-26 01:12:00,
2013-07-25 21:14:00,72.0,61.7,30.05,NW,314,0.0,3.0,70,0.00,,,0.00,Wunderground v.1.15,2013-07-26 01:14:00,
2013-07-25 21:16:00,71.6,61.7,30.05,NW,314,0.0,3.0,71,0.00,,,0.00,Wunderground v.1.15,2013-07-26 01:16:00,
2013-07-25 21:20:00,70.9,61.0,30.05,NW,314,0.0,3.0,71,0.00,,,0.00,Wunderground v.1.15,2013-07-26 01:20:00,
2013-07-25 21:22:00,70.7,61.2,30.05,NW,314,0.0,3.0,72,0.00,,,0.00,Wunderground v.1.15,2013-07-26 01:22:00,
2013-07-25 21:26:00,70.2,61.1,30.05,NW,314,0.0,3.0,73,0.00,,,0.00,Wunderground v.1.15,2013-07-26 01:26:00,
2013-07-25 21:28:00,70.0,61.3,30.06,NW,314,0.0,3.0,74,0.00,,,0.00,Wunderground v.1.15,2013-07-26 01:28:00,
2013-07-25 21:30:00,69.7,61.4,30.06,NW,314,0.0,3.0,75,0.00,,,0.00,Wunderground v.1.15,2013-07-26 01:30:00,
2013-07-25 21:34:00,69.3,61.8,30.06,NW,314,0.0,3.0,77,0.00,,,0.00,Wunderground v.1.15,2013-07-26 01:34:00,
2013-07-25 21:38:00,68.8,62.0,30.06,NW,314,0.0,3.0,79,0.00,,,0.00,Wunderground v.1.15,2013-07-26 01:38:00,
2013-07-25 21:40:00,68.5,62.1,30.06,NW,314,0.0,3.0,80,0.00,,,0.00,Wunderground v.1.15,2013-07-26 01:40:00,
2013-07-25 21:44:00,68.1,61.3,30.06,NW,314,0.0,3.0,79,0.00,,,0.00,Wunderground v.1.15,2013-07-26 01:44:00,
2013-07-25 21:48:00,67.8,61.4,30.06,NW,314,0.0,3.0,80,0.00,,,0.00,Wunderground v.1.15,2013-07-26 01:48:00,
2013-07-25 21:50:00,67.7,61.0,30.06,NW,314,0.0,3.0,79,0.00,,,0.00,Wunderground v.1.15,2013-07-26 01:50:00,
2013-07-25 21:52:00,67.5,60.8,30.06,NW,314,0.0,3.0,79,0.00,,,0.00,Wunderground v.1.15,2013-07-26 01:52:00,
2013-07-25 21:54:00,67.4,60.7,30.06,NW,314,0.0,3.0,79,0.00,,,0.00,Wunderground v.1.15,2013-07-26 01:54:00,
2013-07-25 21:56:00,67.3,61.3,30.06,NW,314,0.0,3.0,81,0.00,,,0.00,Wunderground v.1.15,2013-07-26 01:56:00,
2013-07-25 21:58:00,67.3,61.6,30.06,NW,314,0.0,3.0,82,0.00,,,0.00,Wunderground v.1.15,2013-07-26 01:58:00,
2013-07-25 22:02:00,67.0,61.0,30.06,NW,314,0.0,3.0,81,0.00,,,0.00,Wunderground v.1.15,2013-07-26 02:02:00,
2013-07-25 22:04:00,66.9,61.2,30.07,NW,314,0.0,3.0,82,0.00,,,0.00,Wunderground v.1.15,2013-07-26 02:04:00,
2013-07-25 22:06:00,66.7,61.4,30.07,NW,314,0.0,3.0,83,0.00,,,0.00,Wunderground v.1.15,2013-07-26 02:06:00,
2013-07-25 22:08:00,66.4,61.1,30.07,NW,314,0.0,3.0,83,0.00,,,0.00,Wunderground v.1.15,2013-07-26 02:08:00,
2013-07-25 22:10:00,66.1,61.1,30.07,NW,314,0.0,3.0,84,0.00,,,0.00,Wunderground v.1.15,2013-07-26 02:10:00,
2013-07-25 22:14:00,65.6,60.3,30.07,NW,314,0.0,3.0,83,0.00,,,0.00,Wunderground v.1.15,2013-07-26 02:14:00,
2013-07-25 22:16:00,65.3,60.0,30.07,NW,314,0.0,3.0,83,0.00,,,0.00,Wunderground v.1.15,2013-07-26 02:16:00,
2013-07-25 22:20:00,65.0,59.7,30.07,NW,314,0.0,3.0,83,0.00,,,0.00,Wunderground v.1.15,2013-07-26 02:20:00,
2013-07-25 22:24:00,64.6,59.7,30.07,NW,314,0.0,3.0,84,0.00,,,0.00,Wunderground v.1.15,2013-07-26 02:24:00,
2013-07-25 22:28:00,64.4,59.8,30.07,NW,314,0.0,3.0,85,0.00,,,0.00,Wunderground v.1.15,2013-07-26 02:28:00,
2013-07-25 22:30:00,64.2,59.6,30.07,NW,314,0.0,3.0,85,0.00,,,0.00,Wunderground v.1.15,2013-07-26 02:30:00,
2013-07-25 22:32:00,64.1,59.8,30.07,NW,314,0.0,3.0,86,0.00,,,0.00,Wunderground v.1.15,2013-07-26 02:32:00,
2013-07-25 22:34:00,64.1,59.8,30.07,NW,314,0.0,3.0,86,0.00,,,0.00,Wunderground v.1.15,2013-07-26 02:34:00,
2013-07-25 22:36:00,64.1,59.5,30.07,NW,314,0.0,3.0,85,0.00,,,0.00,Wunderground v.1.15,2013-07-26 02:36:00,
2013-07-25 22:38:00,64.1,59.5,30.07,NW,314,0.0,3.0,85,0.00,,,0.00,Wunderground v.1.15,2013-07-26 02:38:00,
2013-07-25 22:42:00,64.1,59.8,30.07,NW,314,0.0,3.0,86,0.00,,,0.00,Wunderground v.1.15,2013-07-26 02:42:00,
2013-07-25 22:44:00,64.1,59.8,30.07,NW,314,0.0,3.0,86,0.00,,,0.00,Wunderground v.1.15,2013-07-26 02:44:00,
2013-07-25 22:46:00,64.2,59.9,30.07,NW,314,0.0,3.0,86,0.00,,,0.00,Wunderground v.1.15,2013-07-26 02:46:00,
2013-07-25 22:48:00,64.2,59.9,30.07,NW,314,0.0,3.0,86,0.00,,,0.00,Wunderground v.1.15,2013-07-26 02:48:00,
2013-07-25 22:52:00,64.2,59.9,30.07,NW,314,0.0,3.0,86,0.00,,,0.00,Wunderground v.1.15,2013-07-26 02:52:00,
2013-07-25 22:54:00,64.1,59.8,30.07,NW,314,0.0,3.0,86,0.00,,,0.00,Wunderground v.1.15,2013-07-26 02:54:00,
2013-07-25 22:58:00,64.0,59.7,30.07,NW,314,0.0,3.0,86,0.00,,,0.00,Wunderground v.1.15,2013-07-26 02:58:00,
2013-07-25 23:02:00,64.1,59.8,30.07,NW,314,0.0,3.0,86,0.00,,,0.00,Wunderground v.1.15,2013-07-26 03:02:00,
2013-07-25 23:04:00,64.1,59.8,30.07,NW,314,0.0,3.0,86,0.00,,,0.00,Wunderground v.1.15,2013-07-26 03:04:00,
2013-07-25 23:06:00,64.1,59.8,30.07,NW,314,0.0,3.0,86,0.00,,,0.00,Wunderground v.1.15,2013-07-26 03:06:00,
2013-07-25 23:08:00,64.2,59.9,30.07,NW,314,0.0,3.0,86,0.00,,,0.00,Wunderground v.1.15,2013-07-26 03:08:00,
2013-07-25 23:10:00,64.1,59.8,30.07,NW,314,0.0,3.0,86,0.00,,,0.00,Wunderground v.1.15,2013-07-26 03:10:00,
2013-07-25 23:12:00,64.0,59.4,30.08,NW,314,0.0,3.0,85,0.00,,,0.00,Wunderground v.1.15,2013-07-26 03:12:00,
2013-07-25 23:14:00,63.7,59.4,30.08,NW,314,0.0,3.0,86,0.00,,,0.00,Wunderground v.1.15,2013-07-26 03:14:00,
2013-07-25 23:18:00,63.2,59.3,30.07,NW,314,0.0,3.0,87,0.00,,,0.00,Wunderground v.1.15,2013-07-26 03:18:00,
2013-07-25 23:20:00,63.1,59.5,30.07,NW,314,0.0,3.0,88,0.00,,,0.00,Wunderground v.1.15,2013-07-26 03:20:00,
2013-07-25 23:22:00,63.0,59.4,30.07,NW,314,0.0,3.0,88,0.00,,,0.00,Wunderground v.1.15,2013-07-26 03:22:00,
2013-07-25 23:24:00,63.0,59.7,30.07,NW,314,0.0,3.0,89,0.00,,,0.00,Wunderground v.1.15,2013-07-26 03:24:00,
2013-07-25 23:28:00,62.8,59.5,30.07,NW,314,0.0,3.0,89,0.00,,,0.00,Wunderground v.1.15,2013-07-26 03:28:00,
2013-07-25 23:30:00,62.7,59.1,30.07,NW,314,0.0,3.0,88,0.00,,,0.00,Wunderground v.1.15,2013-07-26 03:30:00,
2013-07-25 23:34:00,62.6,59.3,30.08,NW,314,0.0,3.0,89,0.00,,,0.00,Wunderground v.1.15,2013-07-26 03:34:00,
2013-07-25 23:36:00,62.5,59.2,30.08,NW,314,0.0,3.0,89,0.00,,,0.00,Wunderground v.1.15,2013-07-26 03:36:00,
2013-07-25 23:38:00,62.3,59.0,30.08,NW,314,0.0,3.0,89,0.00,,,0.00,Wunderground v.1.15,2013-07-26 03:38:00,
2013-07-25 23:42:00,62.1,59.1,30.08,NW,314,0.0,3.0,90,0.00,,,0.00,Wunderground v.1.15,2013-07-26 03:42:00,
2013-07-25 23:44:00,62.1,59.1,30.08,NW,314,0.0,3.0,90,0.00,,,0.00,Wunderground v.1.15,2013-07-26 03:44:00,
2013-07-25 23:46:00,62.0,59.0,30.08,NW,314,0.0,3.0,90,0.00,,,0.00,Wunderground v.1.15,2013-07-26 03:46:00,
2013-07-25 23:48:00,62.0,59.0,30.08,NW,314,0.0,3.0,90,0.00,,,0.00,Wunderground v.1.15,2013-07-26 03:48:00,
2013-07-25 23:52:00,61.9,58.9,30.08,NW,314,0.0,3.0,90,0.00,,,0.00,Wunderground v.1.15,2013-07-26 03:52:00,
2013-07-25 23:57:00,61.8,58.8,30.08,NW,314,0.0,3.0,90,0.00,,,0.00,Wunderground v.1.15,2013-07-26 03:57:00,
2013-07-25 23:58:00,61.8,58.8,30.08,NW,314,0.0,3.0,90,0.00,,,0.00,Wunderground v.1.15,2013-07-26 03:58:00,